Fairfield, OH

12:23 AM EST on February 24, 2017 (GMT -0500)
Butler County Regional

Weather History for KHAO - March, 2012

Change the Weather History Date:

Sunday, March 4, 2012

  Actual Average (KLUK) Record (KLUK)
Temperature  
Mean Temperature 32 °F -  
Max Temperature 37 °F 53 °F 83 °F (1976)
Min Temperature 28 °F 34 °F 9 °F (2014)
Degree Days  
Heating Degree Days 32    
Moisture  
Dew Point 19 °F    
Average Humidity 58    
Maximum Humidity 72    
Minimum Humidity 43    
Precipitation  
Precipitation 0.00 in - - ()
Sea Level Pressure  
Sea Level Pressure 29.91 in    
Wind  
Wind Speed 7 mph (West)    
Max Wind Speed 15 mph    
Max Gust Speed 22 mph    
Visibility 10 miles    
Events Snow    
Averages and records for this station are not official NWS values.
T = Trace of Precipitation, MM = Missing Value Source: NWS Daily Summary

Daily Weather History Graph

Daily Weather History Graph

Search for Another Location

Airport or City:

Trip Planner

Search our weather history database for the weather conditions in past years. The results will help you decide how hot, cold, wet, or windy it might be!

Date:

Astronomy

Mar. 04, 2012 Rise Set
Actual Time 7:05 AM EST 6:34 PM EST
Civil Twilight 6:38 AM EST 7:01 PM EST
Nautical Twilight 6:07 AM EST 7:32 PM EST
Astronomical Twilight 5:36 AM EST 8:03 PM EST
Moon 2:46 PM EST (3/4) 4:24 AM EST (3/4)
Length of Visible Light 12h 22m
Length of Day
11h 28m
Waxing Gibbous, 83% of the Moon is Illuminated
Mar 4
Waxing Gibbous
Mar 8
Full
Mar 14
Last Quarter
Mar 22
New
Mar 30
First Quarter

Hourly Weather History & Observations

Time (EST) Temp. Windchill Dew Point Humidity Pressure Visibility Wind Dir Wind Speed Gust Speed Precip Events Conditions
12:53 AM 34.0 °F 26.6 °F 18.0 °F 52% 29.89 in 10.0 mi West 9.2 mph - N/A   Overcast
1:53 AM 34.0 °F 28.0 °F 18.0 °F 52% 29.88 in 10.0 mi WSW 6.9 mph - N/A   Overcast
2:53 AM 32.0 °F 26.4 °F 19.0 °F 59% 29.88 in 10.0 mi West 5.8 mph - N/A   Scattered Clouds
3:53 AM 28.9 °F 23.9 °F 19.9 °F 69% 29.86 in 10.0 mi WSW 4.6 mph - N/A   Partly Cloudy
4:53 AM 28.0 °F 24.2 °F 19.0 °F 69% 29.86 in 10.0 mi West 3.5 mph - N/A   Clear
5:53 AM 28.0 °F 21.7 °F 19.0 °F 69% 29.87 in 10.0 mi West 5.8 mph - N/A   Clear
6:53 AM 30.0 °F 22.4 °F 19.9 °F 66% 29.89 in 10.0 mi West 8.1 mph - N/A   Mostly Cloudy
7:53 AM 30.0 °F 23.2 °F 19.9 °F 66% 29.90 in 10.0 mi West 6.9 mph - N/A   Overcast
8:53 AM 32.0 °F 26.4 °F 19.9 °F 61% 29.92 in 10.0 mi West 5.8 mph - N/A   Overcast
9:53 AM 33.1 °F 25.5 °F 19.9 °F 59% 29.92 in 10.0 mi West 9.2 mph - N/A   Overcast
10:53 AM 34.0 °F 26.6 °F 18.0 °F 52% 29.92 in 10.0 mi WNW 9.2 mph - N/A   Overcast
11:53 AM 34.0 °F 27.2 °F 19.9 °F 56% 29.92 in 6.0 mi WSW 8.1 mph 17.3 mph 0.00 in Snow Light Snow
12:53 PM 36.0 °F 28.5 °F 18.0 °F 48% 29.93 in 10.0 mi West 10.4 mph 18.4 mph 0.00 in   Overcast
1:53 PM 36.0 °F 28.5 °F 17.1 °F 46% 29.91 in 10.0 mi WNW 10.4 mph - N/A   Overcast
2:53 PM 37.0 °F 28.1 °F 17.1 °F 44% 29.91 in 10.0 mi WNW 15.0 mph 21.9 mph N/A   Overcast
3:53 PM 37.9 °F 31.5 °F 17.1 °F 43% 29.90 in 10.0 mi West 9.2 mph - N/A   Overcast
4:53 PM 37.9 °F 31.5 °F 18.0 °F 45% 29.90 in 10.0 mi WNW 9.2 mph - N/A   Overcast
5:53 PM 37.0 °F 31.0 °F 18.0 °F 46% 29.91 in 10.0 mi WNW 8.1 mph - N/A   Overcast
6:53 PM 34.0 °F 28.8 °F 19.0 °F 54% 29.92 in 10.0 mi NW 5.8 mph - N/A   Overcast
7:53 PM 28.0 °F 24.2 °F 19.9 °F 72% 29.93 in 10.0 mi North 3.5 mph - N/A   Mostly Cloudy
8:53 PM 30.9 °F - 21.0 °F 67% 29.94 in 10.0 mi Calm Calm - N/A   Mostly Cloudy
9:53 PM 28.0 °F - 19.9 °F 72% 29.94 in 10.0 mi Calm Calm - N/A   Mostly Cloudy
10:53 PM 30.0 °F - 21.0 °F 69% 29.93 in 10.0 mi Calm Calm - N/A   Mostly Cloudy